Location: Bühlhof
(48.7849°N, 8.6361°E)
Time: 21:09:31
(UTC+00:00)

Thor Agena Rocket - Pass Details

Date: 19 January 2026
Orbit: 755 x 801 km, 99.1° (Epoch: 16 February)

Event Time Altitude Azimuth Distance (km) Brightness Sun altitude
Rises 16:26:26 0° 155° (SSE) 3,201 6.7 -4.3°
Reaches altitude 10° 16:28:43 10° 153° (SSE) 2,278 6.0 -4.6°
Maximum altitude 16:33:41 69° 71° (ENE) 813 3.5 -5.4°
Drops below altitude 10° 16:38:42 10° 349° (N) 2,299 5.9 -6.1°
Sets 16:41:01 0° 347° (NNW) 3,232 6.6 -6.5°
